Time,TemperatureF,DewpointF,PressureIn,WindDirection,WindDirectionDegrees,WindSpeedMPH,WindSpeedGustMPH,Humidity,HourlyPrecipIn,Conditions,Clouds,dailyrainin,SoftwareType,DateUTC
2013-11-27 00:08:00,34.0,34.0,29.73,SE,143,4.0,8.0,98,0.02,,,0.00,weatherlink.com 1.10,2013-11-27 05:08:00,
2013-11-27 00:25:00,34.1,34.0,29.73,SE,133,2.0,5.0,98,0.03,,,0.01,weatherlink.com 1.10,2013-11-27 05:25:00,
2013-11-27 00:44:00,34.2,34.0,29.73,SSE,155,2.0,6.0,98,0.03,,,0.02,weatherlink.com 1.10,2013-11-27 05:44:00,
2013-11-27 01:04:00,33.6,33.0,29.74,SE,127,3.0,6.0,98,0.03,,,0.03,weatherlink.com 1.10,2013-11-27 06:04:00,
2013-11-27 01:22:00,33.1,33.0,29.73,SSE,153,3.0,6.0,98,0.02,,,0.03,weatherlink.com 1.10,2013-11-27 06:22:00,
2013-11-27 01:40:00,33.0,33.0,29.74,SE,146,1.0,5.0,98,0.02,,,0.04,weatherlink.com 1.10,2013-11-27 06:40:00,
2013-11-27 02:00:00,32.9,32.0,29.73,ESE,121,2.0,6.0,98,0.01,,,0.04,weatherlink.com 1.10,2013-11-27 07:00:00,
2013-11-27 02:17:00,32.9,32.0,29.73,ESE,116,4.0,8.0,98,0.01,,,0.04,weatherlink.com 1.10,2013-11-27 07:17:00,
2013-11-27 02:36:00,32.8,32.0,29.72,SE,129,2.0,7.0,98,0.00,,,0.04,weatherlink.com 1.10,2013-11-27 07:36:00,
2013-11-27 02:54:00,32.7,32.0,29.73,SE,129,8.0,8.0,98,0.00,,,0.04,weatherlink.com 1.10,2013-11-27 07:54:00,
2013-11-27 03:14:00,32.5,32.0,29.75,SE,127,4.0,7.0,98,0.00,,,0.04,weatherlink.com 1.10,2013-11-27 08:14:00,
2013-11-27 03:32:00,32.3,32.0,29.75,ESE,111,2.0,6.0,98,0.00,,,0.04,weatherlink.com 1.10,2013-11-27 08:32:00,
2013-11-27 03:50:00,32.2,32.0,29.73,ESE,113,4.0,7.0,98,0.00,,,0.04,weatherlink.com 1.10,2013-11-27 08:50:00,
2013-11-27 04:09:00,32.0,31.0,29.73,ESE,119,3.0,5.0,97,0.00,,,0.04,weatherlink.com 1.10,2013-11-27 09:09:00,
2013-11-27 04:27:00,31.8,31.0,29.73,ESE,120,3.0,5.0,97,0.00,,,0.04,weatherlink.com 1.10,2013-11-27 09:27:00,
2013-11-27 04:45:00,31.6,31.0,29.73,ESE,122,3.0,5.0,98,0.00,,,0.04,weatherlink.com 1.10,2013-11-27 09:45:00,
2013-11-27 05:04:00,31.6,31.0,29.74,SE,124,0.0,2.0,98,0.00,,,0.04,weatherlink.com 1.10,2013-11-27 10:04:00,
2013-11-27 05:23:00,31.5,31.0,29.75,ESE,117,2.0,4.0,98,0.00,,,0.04,weatherlink.com 1.10,2013-11-27 10:23:00,
2013-11-27 05:42:00,31.4,31.0,29.75,ESE,120,0.0,3.0,98,0.00,,,0.04,weatherlink.com 1.10,2013-11-27 10:42:00,
2013-11-27 06:00:00,31.3,31.0,29.75,ESE,110,2.0,3.0,98,0.00,,,0.04,weatherlink.com 1.10,2013-11-27 11:00:00,
2013-11-27 06:20:00,31.2,31.0,29.76,SE,143,2.0,4.0,98,0.00,,,0.04,weatherlink.com 1.10,2013-11-27 11:20:00,
2013-11-27 06:38:00,31.2,31.0,29.76,East,89,1.0,6.0,98,0.00,,,0.04,weatherlink.com 1.10,2013-11-27 11:38:00,
2013-11-27 06:56:00,31.0,31.0,29.76,SE,125,3.0,9.0,98,0.00,,,0.04,weatherlink.com 1.10,2013-11-27 11:56:00,
2013-11-27 07:15:00,30.9,30.0,29.77,ESE,105,2.0,5.0,98,0.00,,,0.04,weatherlink.com 1.10,2013-11-27 12:15:00,
2013-11-27 07:33:00,30.9,30.0,29.77,ESE,109,2.0,7.0,98,0.00,,,0.04,weatherlink.com 1.10,2013-11-27 12:33:00,
2013-11-27 07:52:00,30.8,30.0,29.77,ESE,105,2.0,6.0,98,0.00,,,0.04,weatherlink.com 1.10,2013-11-27 12:52:00,
2013-11-27 08:09:00,30.8,30.0,29.78,SE,142,5.0,6.0,98,0.00,,,0.04,weatherlink.com 1.10,2013-11-27 13:09:00,
2013-11-27 08:30:00,30.9,30.0,29.79,SE,144,3.0,5.0,97,0.00,,,0.04,weatherlink.com 1.10,2013-11-27 13:30:00,
2013-11-27 08:47:00,30.9,30.0,29.78,ESE,105,5.0,5.0,97,0.00,,,0.04,weatherlink.com 1.10,2013-11-27 13:47:00,
2013-11-27 09:05:00,31.0,30.0,29.79,ESE,119,4.0,8.0,97,0.00,,,0.04,weatherlink.com 1.10,2013-11-27 14:05:00,
2013-11-27 09:25:00,31.2,31.0,29.79,ESE,110,2.0,8.0,97,0.00,,,0.04,weatherlink.com 1.10,2013-11-27 14:25:00,
2013-11-27 09:43:00,31.3,31.0,29.80,ESE,120,5.0,8.0,97,0.00,,,0.04,weatherlink.com 1.10,2013-11-27 14:43:00,
2013-11-27 10:02:00,31.4,31.0,29.79,SE,127,1.0,7.0,97,0.00,,,0.04,weatherlink.com 1.10,2013-11-27 15:02:00,
2013-11-27 10:20:00,31.6,31.0,29.79,ENE,72,1.0,7.0,97,0.00,,,0.04,weatherlink.com 1.10,2013-11-27 15:20:00,
2013-11-27 10:39:00,31.6,31.0,29.79,ESE,108,1.0,9.0,96,0.00,,,0.04,weatherlink.com 1.10,2013-11-27 15:39:00,
2013-11-27 10:57:00,31.7,31.0,29.77,ESE,113,5.0,11.0,95,0.00,,,0.04,weatherlink.com 1.10,2013-11-27 15:57:00,
2013-11-27 11:16:00,31.6,30.0,29.75,SE,142,3.0,12.0,95,0.00,,,0.04,weatherlink.com 1.10,2013-11-27 16:16:00,
2013-11-27 11:36:00,31.5,30.0,29.73,ESE,120,7.0,15.0,95,0.00,,,0.04,weatherlink.com 1.10,2013-11-27 16:36:00,
2013-11-27 11:54:00,31.3,30.0,29.72,SSE,149,11.0,18.0,94,0.00,,,0.04,weatherlink.com 1.10,2013-11-27 16:54:00,
2013-11-27 12:12:00,31.0,30.0,29.73,SE,127,6.0,15.0,94,0.00,,,0.04,weatherlink.com 1.10,2013-11-27 17:12:00,
2013-11-27 12:32:00,30.7,30.0,29.74,SSE,166,4.0,18.0,95,0.00,,,0.04,weatherlink.com 1.10,2013-11-27 17:32:00,
2013-11-27 12:50:00,30.7,29.0,29.74,SE,138,10.0,16.0,93,0.00,,,0.04,weatherlink.com 1.10,2013-11-27 17:50:00,
2013-11-27 13:08:00,30.6,29.0,29.76,SSE,159,8.0,15.0,92,0.00,,,0.04,weatherlink.com 1.10,2013-11-27 18:08:00,
2013-11-27 13:26:00,30.3,27.0,29.77,SE,127,6.0,18.0,88,0.00,,,0.04,weatherlink.com 1.10,2013-11-27 18:26:00,
2013-11-27 13:46:00,30.0,27.0,29.77,SE,136,6.0,15.0,89,0.00,,,0.04,weatherlink.com 1.10,2013-11-27 18:46:00,
2013-11-27 14:04:00,30.0,26.0,29.78,SE,132,15.0,21.0,85,0.00,,,0.04,weatherlink.com 1.10,2013-11-27 19:04:00,
2013-11-27 14:22:00,29.9,25.0,29.79,SE,128,12.0,18.0,83,0.00,,,0.04,weatherlink.com 1.10,2013-11-27 19:22:00,
2013-11-27 14:42:00,29.6,25.0,29.80,SE,141,10.0,17.0,84,0.00,,,0.04,weatherlink.com 1.10,2013-11-27 19:42:00,
2013-11-27 15:00:00,28.8,26.0,29.82,ESE,114,15.0,20.0,88,0.00,,,0.04,weatherlink.com 1.10,2013-11-27 20:00:00,
2013-11-27 15:18:00,27.1,25.0,29.84,SE,143,8.0,20.0,90,0.00,,,0.04,weatherlink.com 1.10,2013-11-27 20:18:00,
2013-11-27 15:38:00,26.7,23.0,29.87,SE,141,7.0,18.0,86,0.00,,,0.04,weatherlink.com 1.10,2013-11-27 20:38:00,
2013-11-27 15:56:00,26.3,22.0,29.88,SE,129,9.0,21.0,85,0.00,,,0.04,weatherlink.com 1.10,2013-11-27 20:56:00,
2013-11-27 16:14:00,26.1,21.0,29.90,SE,143,10.0,22.0,80,0.00,,,0.04,weatherlink.com 1.10,2013-11-27 21:14:00,
2013-11-27 16:32:00,25.8,21.0,29.91,ESE,115,7.0,18.0,81,0.00,,,0.04,weatherlink.com 1.10,2013-11-27 21:32:00,
2013-11-27 16:52:00,25.6,21.0,29.92,ESE,110,7.0,18.0,81,0.00,,,0.04,weatherlink.com 1.10,2013-11-27 21:52:00,
2013-11-27 17:10:00,25.4,20.0,29.93,ESE,111,9.0,19.0,81,0.00,,,0.04,weatherlink.com 1.10,2013-11-27 22:10:00,
2013-11-27 17:29:00,25.2,19.0,29.94,SE,129,18.0,20.0,78,0.00,,,0.04,weatherlink.com 1.10,2013-11-27 22:29:00,
2013-11-27 17:47:00,24.7,19.0,29.95,SE,140,7.0,18.0,79,0.00,,,0.04,weatherlink.com 1.10,2013-11-27 22:47:00,
2013-11-27 18:05:00,24.5,19.0,29.96,ESE,108,9.0,22.0,79,0.00,,,0.04,weatherlink.com 1.10,2013-11-27 23:05:00,
2013-11-27 18:25:00,24.1,18.0,29.97,ESE,115,7.0,18.0,77,0.00,,,0.04,weatherlink.com 1.10,2013-11-27 23:25:00,
2013-11-27 18:43:00,23.8,17.0,29.98,ESE,115,12.0,15.0,75,0.00,,,0.04,weatherlink.com 1.10,2013-11-27 23:43:00,
2013-11-27 19:01:00,23.3,17.0,29.99,SE,132,2.0,12.0,76,0.00,,,0.04,weatherlink.com 1.10,2013-11-28 00:01:00,
2013-11-27 19:19:00,23.2,17.0,30.00,SE,129,2.0,11.0,78,0.00,,,0.04,weatherlink.com 1.10,2013-11-28 00:19:00,
2013-11-27 19:39:00,23.3,17.0,30.01,ESE,118,8.0,19.0,78,0.00,,,0.04,weatherlink.com 1.10,2013-11-28 00:39:00,
2013-11-27 19:57:00,23.3,18.0,30.02,ENE,60,4.0,15.0,79,0.00,,,0.04,weatherlink.com 1.10,2013-11-28 00:57:00,
2013-11-27 20:15:00,23.1,18.0,30.02,ESE,121,8.0,14.0,81,0.00,,,0.04,weatherlink.com 1.10,2013-11-28 01:15:00,
2013-11-27 20:35:00,22.7,19.0,30.03,SE,143,7.0,16.0,85,0.00,,,0.04,weatherlink.com 1.10,2013-11-28 01:35:00,
2013-11-27 20:53:00,22.4,19.0,30.04,SE,132,10.0,12.0,86,0.00,,,0.04,weatherlink.com 1.10,2013-11-28 01:53:00,
2013-11-27 21:11:00,22.5,18.0,30.04,ESE,123,6.0,15.0,84,0.00,,,0.04,weatherlink.com 1.10,2013-11-28 02:11:00,
2013-11-27 21:31:00,22.5,19.0,30.06,SE,138,5.0,12.0,85,0.00,,,0.04,weatherlink.com 1.10,2013-11-28 02:31:00,
2013-11-27 21:49:00,22.4,19.0,30.07,SE,134,3.0,14.0,86,0.00,,,0.04,weatherlink.com 1.10,2013-11-28 02:49:00,
2013-11-27 22:07:00,22.4,19.0,30.07,ESE,110,3.0,11.0,86,0.00,,,0.04,weatherlink.com 1.10,2013-11-28 03:07:00,
2013-11-27 22:25:00,22.3,19.0,30.09,ESE,122,2.0,10.0,87,0.00,,,0.04,weatherlink.com 1.10,2013-11-28 03:25:00,
2013-11-27 22:45:00,22.5,19.0,30.10,ESE,117,1.0,11.0,85,0.00,,,0.04,weatherlink.com 1.10,2013-11-28 03:45:00,
2013-11-27 23:03:00,22.6,19.0,30.11,East,87,5.0,14.0,85,0.00,,,0.04,weatherlink.com 1.10,2013-11-28 04:03:00,
2013-11-27 23:21:00,22.4,19.0,30.12,ESE,115,2.0,13.0,85,0.00,,,0.04,weatherlink.com 1.10,2013-11-28 04:21:00,
2013-11-27 23:41:00,22.4,19.0,30.13,ESE,113,0.0,10.0,86,0.00,,,0.04,weatherlink.com 1.10,2013-11-28 04:41:00,
2013-11-27 23:59:00,22.4,19.0,30.14,South,170,2.0,11.0,86,0.00,,,0.04,weatherlink.com 1.10,2013-11-28 04:59:00,